This is the latest recevied weather packets stored in our database for station/object WP3XM. If no packets are shown the sender has not sent any weather packets the latest 10 day(s).
| Time | Temp. | Humidity | Pressure | Rain* | Wind** | Luminosity | Snow |
|---|---|---|---|---|---|---|---|
| 1778023834 | 28.33° C | 77% | 1018.8 hPa | 0 mm | - | 0 W/m² | - |
| 1778023532 | 28.33° C | 76% | 1018.7 hPa | 0 mm | - | 0 W/m² | - |
| 1778023229 | 28.33° C | 76% | 1018.7 hPa | 0 mm | - | 0 W/m² | - |
| 1778022926 | 28.33° C | 76% | 1018.6 hPa | 0 mm | - | 0 W/m² | - |
| 1778022625 | 27.78° C | 78% | 1018.7 hPa | 0 mm | - | 0 W/m² | - |
| 1778022321 | 27.78° C | 78% | 1018.7 hPa | 0 mm | - | 0 W/m² | - |
| 1778022018 | 27.78° C | 78% | 1018.5 hPa | 0 mm | - | 0 W/m² | - |
| 1778021715 | 27.78° C | 78% | 1018.6 hPa | 0 mm | - | 1 W/m² | - |
| 1778021411 | 27.78° C | 78% | 1018.6 hPa | 0 mm | - | 2 W/m² | - |
| 1778021108 | 27.78° C | 77% | 1018.5 hPa | 0 mm | - | 5 W/m² | - |
| 1778020805 | 27.78° C | 77% | 1018.3 hPa | 0 mm | - | 8 W/m² | - |
| 1778020502 | 27.78° C | 77% | 1018.3 hPa | 0 mm | - | 13 W/m² | - |
| 1778020198 | 27.78° C | 76% | 1018.2 hPa | 0 mm | - | 18 W/m² | - |
| 1778019895 | 27.78° C | 76% | 1018.1 hPa | 0 mm | - | 23 W/m² | - |
| 1778019590 | 27.78° C | 75% | 1018.1 hPa | 0 mm | - | 29 W/m² | - |
| 1778019288 | 28.33° C | 74% | 1018.1 hPa | 0 mm | - | 35 W/m² | - |
| 1778018985 | 27.78° C | 74% | 1018 hPa | 0 mm | - | 40 W/m² | - |
| 1778018682 | 27.78° C | 74% | 1017.7 hPa | 0 mm | - | 55 W/m² | - |
| 1778018379 | 28.33° C | 73% | 1017.6 hPa | 0 mm | - | 64 W/m² | - |
| 1778018077 | 28.33° C | 73% | 1017.7 hPa | 0 mm | - | 76 W/m² | - |
| 1778017775 | 28.89° C | 72% | 1017.6 hPa | 0 mm | - | 89 W/m² | - |
| 1778017472 | 28.89° C | 71% | 1017.5 hPa | 0 mm | - | 103 W/m² | - |
| 1778017169 | 28.33° C | 72% | 1017.7 hPa | 0 mm | - | 116 W/m² | - |
| 1778016867 | 28.33° C | 72% | 1017.5 hPa | 0 mm | - | 122 W/m² | - |
| 1778016563 | 28.89° C | 71% | 1017.5 hPa | 0 mm | - | 72 W/m² | - |
* Rain latest hour (hover to see other rain measurements)
** Current wind speed in m/s (hover to see current wind gust speed)